Peru, IL

4:27 PM CDT on June 23, 2017 (GMT -0500)
Illinois Valley Regional-Duncan

Weather History for KVYS - December, 2011

Change the Weather History Date:

Tuesday, December 6, 2011

  Actual Average Record
Temperature  
Mean Temperature 34 °F -  
Max Temperature 37 °F 39 °F 62 °F (1980)
Min Temperature 32 °F 23 °F -5 °F (1977)
Degree Days  
Heating Degree Days 30    
Moisture  
Dew Point 30 °F    
Average Humidity 81    
Maximum Humidity 88    
Minimum Humidity 71    
Precipitation  
Precipitation 0.00 in - - ()
Sea Level Pressure  
Sea Level Pressure 30.24 in    
Wind  
Wind Speed 10 mph (NE)    
Max Wind Speed 17 mph    
Max Gust Speed 16 mph    
Visibility 10 miles    
Events      
Averages and records for this station are not official NWS values.
T = Trace of Precipitation, MM = Missing Value Source: NWS Daily Summary

Daily Weather History Graph

Daily Weather History Graph

Search for Another Location

Airport or City:

Trip Planner

Search our weather history database for the weather conditions in past years. The results will help you decide how hot, cold, wet, or windy it might be!

Date:

Astronomy

Dec. 06, 2011 Rise Set
Actual Time 7:07 AM CST 4:27 PM CST
Civil Twilight 6:36 AM CST 4:58 PM CST
Nautical Twilight 6:02 AM CST 5:32 PM CST
Astronomical Twilight 5:28 AM CST 6:06 PM CST
Moon 1:55 PM CST (12/6) 3:24 AM CST (12/6)
Length of Visible Light 10h 21m
Length of Day
9h 19m
Waxing Gibbous, 87% of the Moon is Illuminated
Dec 6
Waxing Gibbous
Dec 10
Full
Dec 17
Last Quarter
Dec 24
New
Jan 1
First Quarter

Hourly Weather History & Observations

Time (CST) Temp. Windchill Dew Point Humidity Pressure Visibility Wind Dir Wind Speed Gust Speed Precip Events Conditions
12:15 AM 36.5 °F 29.7 °F 32.9 °F 87% 30.28 in 10.0 mi NE 9.2 mph - N/A   Overcast
12:35 AM 36.5 °F 29.2 °F 32.9 °F 87% 30.28 in 10.0 mi NNE 10.4 mph - N/A   Overcast
12:55 AM 36.5 °F 31.0 °F 32.9 °F 87% 30.28 in 10.0 mi NNE 6.9 mph - N/A   Overcast
1:15 AM 36.5 °F 30.3 °F 33.1 °F 87% 30.27 in 10.0 mi NNE 8.1 mph - N/A   Overcast
1:35 AM 36.5 °F 29.2 °F 33.1 °F 87% 30.26 in 10.0 mi NNE 10.4 mph - N/A   Overcast
1:55 AM 37.4 °F 30.8 °F 33.8 °F 87% 30.27 in 10.0 mi NE 9.2 mph - N/A   Overcast
2:15 AM 37.4 °F 29.3 °F 32.0 °F 81% 30.27 in 10.0 mi NE 12.7 mph 16.1 mph N/A   Overcast
2:35 AM 36.7 °F 28.4 °F 32.2 °F 84% 30.28 in 10.0 mi NE 12.7 mph - N/A   Overcast
2:55 AM 36.7 °F 29.9 °F 32.2 °F 84% 30.27 in 10.0 mi NE 9.2 mph - N/A   Overcast
3:15 AM 36.5 °F 29.2 °F 32.2 °F 84% 30.26 in 10.0 mi ENE 10.4 mph 16.1 mph N/A   Overcast
3:35 AM 36.5 °F 29.2 °F 32.2 °F 84% 30.25 in 10.0 mi ENE 10.4 mph - N/A   Overcast
3:55 AM 36.5 °F 29.2 °F 32.5 °F 86% 30.25 in 10.0 mi NE 10.4 mph - N/A   Overcast
4:15 AM 36.5 °F 30.3 °F 32.9 °F 87% 30.25 in 10.0 mi NNE 8.1 mph - N/A   Overcast
4:35 AM 36.5 °F 30.3 °F 32.9 °F 87% 30.25 in 10.0 mi NNE 8.1 mph - N/A   Overcast
4:55 AM 36.5 °F 31.0 °F 32.9 °F 87% 30.26 in 10.0 mi NE 6.9 mph - N/A   Overcast
5:15 AM 36.5 °F 30.3 °F 33.1 °F 87% 30.26 in 10.0 mi NE 8.1 mph - N/A   Overcast
5:35 AM 35.6 °F 28.0 °F 32.2 °F 87% 30.26 in 10.0 mi NE 10.4 mph - N/A   Overcast
5:55 AM 35.2 °F 27.6 °F 32.0 °F 88% 30.26 in 10.0 mi NE 10.4 mph - N/A   Overcast
6:15 AM 35.2 °F 27.1 °F 32.0 °F 88% 30.27 in 10.0 mi NE 11.5 mph - N/A   Overcast
6:35 AM 35.1 °F 27.4 °F 31.6 °F 87% 30.27 in 10.0 mi NE 10.4 mph - N/A   Overcast
6:55 AM 34.9 °F 25.7 °F 30.7 °F 85% 30.28 in 10.0 mi NE 13.8 mph - N/A   Overcast
7:15 AM 34.7 °F 25.5 °F 30.4 °F 84% 30.27 in 10.0 mi NE 13.8 mph - N/A   Overcast
7:35 AM 35.6 °F 27.5 °F 30.2 °F 81% 30.28 in 10.0 mi NE 11.5 mph - N/A   Overcast
7:55 AM 34.7 °F 25.9 °F 30.0 °F 83% 30.27 in 10.0 mi NE 12.7 mph - N/A   Overcast
8:15 AM 34.7 °F 24.3 °F 29.8 °F 82% 30.27 in 10.0 mi NE 17.3 mph - N/A   Overcast
8:35 AM 34.7 °F 24.7 °F 29.8 °F 82% 30.27 in 10.0 mi NE 16.1 mph - N/A   Overcast
8:55 AM 34.7 °F 24.3 °F 30.0 °F 83% 30.27 in 10.0 mi NE 17.3 mph - N/A   Overcast
9:15 AM 34.5 °F 25.7 °F 29.3 °F 81% 30.28 in 10.0 mi NE 12.7 mph - N/A   Overcast
9:35 AM 34.5 °F 26.2 °F 29.3 °F 81% 30.28 in 10.0 mi NE 11.5 mph - N/A   Overcast
9:55 AM 34.9 °F 26.2 °F 29.3 °F 80% 30.28 in 10.0 mi NE 12.7 mph - N/A   Overcast
10:15 AM 35.1 °F 26.4 °F 29.1 °F 79% 30.28 in 10.0 mi NE 12.7 mph - N/A   Overcast
10:35 AM 35.4 °F 26.0 °F 29.7 °F 80% 30.27 in 10.0 mi NNE 15.0 mph - N/A   Overcast
10:55 AM 35.8 °F 27.3 °F 30.0 °F 80% 30.26 in 10.0 mi NE 12.7 mph - N/A   Overcast
11:15 AM 35.8 °F 26.5 °F 29.8 °F 79% 30.25 in 10.0 mi NE 15.0 mph - N/A   Mostly Cloudy
11:35 AM 36.1 °F 28.2 °F 29.8 °F 78% 30.25 in 10.0 mi NE 11.5 mph - N/A   Clear
11:55 AM 36.5 °F 28.2 °F 29.7 °F 76% 30.24 in 10.0 mi NNE 12.7 mph - N/A   Mostly Cloudy
12:15 PM 36.5 °F 28.7 °F 29.3 °F 75% 30.24 in 10.0 mi NNE 11.5 mph - N/A   Overcast
12:35 PM 36.5 °F 29.2 °F 29.3 °F 75% 30.23 in 10.0 mi NE 10.4 mph - N/A   Overcast
12:55 PM 37.2 °F 30.0 °F 29.7 °F 74% 30.23 in 10.0 mi NNE 10.4 mph - N/A   Overcast
1:15 PM 37.0 °F 29.8 °F 29.1 °F 73% 30.21 in 10.0 mi NNE 10.4 mph - N/A   Mostly Cloudy
1:35 PM 36.5 °F 29.7 °F 29.3 °F 75% 30.21 in 10.0 mi NNE 9.2 mph - N/A   Scattered Clouds
1:55 PM 36.5 °F 29.2 °F 29.7 °F 76% 30.21 in 10.0 mi North 10.4 mph - N/A   Scattered Clouds
2:15 PM 36.5 °F 29.7 °F 28.8 °F 74% 30.20 in 10.0 mi NNE 9.2 mph - N/A   Mostly Cloudy
2:35 PM 36.5 °F 30.3 °F 28.2 °F 72% 30.20 in 10.0 mi NE 8.1 mph - N/A   Overcast
2:55 PM 36.5 °F 29.7 °F 27.9 °F 71% 30.20 in 10.0 mi NE 9.2 mph - N/A   Overcast
3:15 PM 36.7 °F 29.9 °F 28.2 °F 71% 30.19 in 10.0 mi NNE 9.2 mph - N/A   Overcast
3:35 PM 36.5 °F 29.7 °F 28.2 °F 72% 30.19 in 10.0 mi NE 9.2 mph - N/A   Overcast
3:55 PM 34.9 °F 27.7 °F 27.5 °F 74% 30.19 in 10.0 mi NE 9.2 mph - N/A   Scattered Clouds
4:15 PM 34.3 °F 28.4 °F 26.8 °F 74% 30.19 in 10.0 mi NNE 6.9 mph - N/A   Scattered Clouds
4:35 PM 33.6 °F 29.4 °F 27.5 °F 78% 30.19 in 10.0 mi NNE 4.6 mph - N/A   Scattered Clouds
4:55 PM 33.6 °F 28.4 °F 27.0 °F 77% 30.19 in 10.0 mi NE 5.8 mph - N/A   Clear
5:15 PM 33.3 °F 28.9 °F 27.1 °F 78% 30.18 in 10.0 mi ENE 4.6 mph - N/A   Scattered Clouds
5:35 PM 32.9 °F 28.5 °F 27.0 °F 79% 30.18 in 10.0 mi ENE 4.6 mph - N/A   Overcast
5:55 PM 32.9 °F 29.8 °F 26.6 °F 78% 30.19 in 10.0 mi NNE 3.5 mph - N/A   Overcast
6:15 PM 33.3 °F 28.9 °F 26.2 °F 75% 30.19 in 10.0 mi NE 4.6 mph - N/A   Overcast
6:35 PM 33.8 °F 28.6 °F 27.1 °F 77% 30.19 in 10.0 mi NNE 5.8 mph - N/A   Overcast
6:55 PM 34.0 °F 29.8 °F 26.8 °F 75% 30.19 in 10.0 mi NNE 4.6 mph - N/A   Overcast
7:15 PM 33.6 °F 29.4 °F 26.2 °F 74% 30.18 in 10.0 mi NE 4.6 mph - N/A   Overcast
7:35 PM 32.9 °F 29.8 °F 25.7 °F 75% 30.18 in 10.0 mi NE 3.5 mph - N/A   Scattered Clouds
7:55 PM 32.5 °F - 25.7 °F 76% 30.18 in 10.0 mi Calm Calm - N/A   Scattered Clouds
8:15 PM 32.5 °F - 27.0 °F 80% 30.18 in 10.0 mi Calm Calm - N/A   Mostly Cloudy
8:35 PM 32.9 °F - 27.0 °F 79% 30.18 in 10.0 mi Calm Calm - N/A   Overcast
8:55 PM 32.9 °F 29.8 °F 27.3 °F 80% 30.17 in 10.0 mi ESE 3.5 mph - N/A   Overcast
9:15 PM 32.9 °F - 26.6 °F 78% 30.17 in 10.0 mi Calm Calm - N/A   Overcast
9:35 PM 33.3 °F - 26.4 °F 76% 30.17 in 10.0 mi Calm Calm - N/A   Overcast
9:55 PM 33.1 °F - 26.1 °F 75% 30.17 in 10.0 mi Calm Calm - N/A   Overcast
10:15 PM 33.3 °F - 25.9 °F 74% 30.16 in 10.0 mi Calm Calm - N/A   Overcast
10:35 PM 33.3 °F - 26.8 °F 77% 30.16 in 10.0 mi Calm Calm - N/A   Overcast
10:55 PM 33.1 °F - 27.5 °F 80% 30.15 in 10.0 mi Calm Calm - N/A   Overcast
11:15 PM 32.9 °F - 27.3 °F 80% 30.15 in 10.0 mi Calm Calm - N/A   Overcast
11:35 PM 33.8 °F - 26.6 °F 75% 30.14 in 10.0 mi Calm Calm - N/A   Overcast
11:55 PM 32.9 °F - 27.7 °F 81% 30.14 in 10.0 mi Calm Calm - N/A   Overcast